GW2622 Weather Reports


time (UTC)temp
C
wind
direction
speed
KPH
gust
KPH
rain 1hr
cm
rain 24hr
cm
rain mn
cm
humidity
%
barometer
mb
20260507092334 6 221 4.8 4.8 0.00 0.00 0.00 64 1012.9
20260507091831 6 220 3.2 9.7 0.00 0.00 0.00 64 1013.1
20260507091327 6 219 1.6 4.8 0.00 0.00 0.00 64 1013.0
20260507090823 6 214 4.8 8.0 0.00 0.00 0.00 64 1013.0
20260507090320 6 221 1.6 4.8 0.00 0.00 0.00 65 1013.3
20260507085817 6 186 4.8 8.0 0.00 0.00 0.00 65 1013.2
20260507085313 5 221 3.2 3.2 0.00 0.00 0.00 66 1013.4
20260507084811 5 220 4.8 8.0 0.00 0.00 0.00 66 1013.7
20260507084307 5 219 8.0 11.3 0.00 0.00 0.00 64 1013.3
20260507083805 5 220 4.8 4.8 0.00 0.00 0.00 66 1013.6
20260507083301 5 221 3.2 3.2 0.00 0.00 0.00 66 1013.6
20260507082757 5 216 8.0 9.7 0.00 0.00 0.00 65 1013.9
20260507082253 5 224 8.0 9.7 0.00 0.00 0.00 65 1013.7
20260507081750 5 217 6.4 9.7 0.00 0.00 0.00 65 1014.0
20260507081246 5 208 4.8 9.7 0.00 0.00 0.00 66 1014.0
20260507080743 5 216 4.8 4.8 0.00 0.00 0.00 66 1014.1
20260507080239 5 217 4.8 8.0 0.00 0.00 0.00 66 1013.9
20260507075734 5 215 4.8 9.7 0.00 0.00 0.00 65 1013.9
20260507075231 5 208 4.8 9.7 0.00 0.00 0.00 64 1014.0
20260507074727 5 212 4.8 4.8 0.00 0.00 0.00 65 1013.9
20260507074226 5 213 4.8 8.0 0.00 0.00 0.00 65 1014.2
20260507073722 5 214 4.8 8.0 0.00 0.00 0.00 64 1014.4
20260507073218 5 213 4.8 8.0 0.00 0.00 0.00 64 1014.3
20260507072717 5 209 4.8 4.8 0.00 0.00 0.00 66 1014.3
20260507072213 5 217 8.0 9.7 0.00 0.00 0.00 65 1014.3
20260507071711 5 219 8.0 11.3 0.00 0.00 0.00 65 1014.3
20260507071207 5 211 6.4 9.7 0.00 0.00 0.00 65 1014.6
20260507070704 5 216 6.4 9.7 0.00 0.00 0.00 65 1014.6
20260507070201 5 217 8.0 9.7 0.00 0.00 0.00 65 1014.6
20260507065657 5 221 6.4 9.7 0.00 0.00 0.00 65 1014.9
20260507065154 4 218 4.8 8.0 0.00 0.00 0.00 66 1014.8
20260507064652 4 218 6.4 8.0 0.00 0.00 0.00 67 1014.8
20260507064150 4 223 4.8 4.8 0.00 0.00 0.00 67 1014.9
20260507063648 4 220 6.4 9.7 0.00 0.00 0.00 66 1015.0
20260507063144 4 228 1.6 4.8 0.00 0.00 0.00 69 1014.9
20260507062641 4 224 4.8 4.8 0.00 0.00 0.00 68 1015.0
20260507062139 5 225 4.8 4.8 0.00 0.00 0.00 67 1015.1
20260507061637 5 225 4.8 8.0 0.00 0.00 0.00 66 1015.2
20260507061134 4 220 4.8 4.8 0.00 0.00 0.00 67 1015.2
20260507060632 5 221 4.8 8.0 0.00 0.00 0.00 67 1015.1
20260507060128 4 231 1.6 3.2 0.00 0.00 0.00 69 1015.3
20260507055624 4 231 3.2 3.2 0.00 0.00 0.00 69 1015.4
20260507055120 4 231 1.6 3.2 0.00 0.00 0.00 68 1015.3
20260507054616 5 232 3.2 4.8 0.00 0.00 0.00 67 1015.4
20260507054113 5 238 3.2 3.2 0.00 0.00 0.00 67 1015.3
20260507053611 5 239 1.6 1.6 0.00 0.00 0.00 67 1015.4
20260507053109 5 239 1.6 3.2 0.00 0.00 0.00 67 1015.4
20260507052607 5 238 1.6 3.2 0.00 0.00 0.00 66 1015.4
20260507052103 5 237 1.6 3.2 0.00 0.00 0.00 64 1015.4
20260507051601 5 244 3.2 3.2 0.00 0.00 0.00 62 1015.5
20260507051057 5 245 1.6 3.2 0.00 0.00 0.00 61 1015.4
20260507050554 5 245 1.6 1.6 0.00 0.00 0.00 61 1015.7
20260507050051 6 245 1.6 1.6 0.00 0.00 0.00 59 1015.6
20260507045548 6 245 1.6 1.6 0.00 0.00 0.00 59 1015.5
20260507045045 6 245 1.6 1.6 0.00 0.00 0.00 59 1015.6
20260507044541 6 245 1.6 1.6 0.00 0.00 0.00 58 1015.7
20260507044038 6 245 1.6 1.6 0.00 0.00 0.00 57 1015.8
20260507043534 6 245 1.6 1.6 0.00 0.00 0.00 57 1015.7
20260507043032 6 245 1.6 1.6 0.00 0.00 0.00 56 1015.7
20260507042527 6 245 1.6 1.6 0.00 0.00 0.00 56 1015.9
20260507042023 6 245 1.6 3.2 0.00 0.00 0.00 56 1015.9
20260507041520 6 245 1.6 1.6 0.00 0.00 0.00 56 1015.8
20260507041017 6 244 1.6 3.2 0.00 0.00 0.00 56 1015.9
20260507040513 7 244 1.6 3.2 0.00 0.00 0.00 54 1015.9
20260507040009 7 244 1.6 3.2 0.00 0.00 0.00 54 1015.9
20260507035506 7 245 1.6 1.6 0.00 0.00 0.00 53 1015.9
20260507035002 7 245 1.6 1.6 0.00 0.00 0.00 55 1015.9
20260507034459 6 245 1.6 1.6 0.00 0.00 0.00 54 1016.0
20260507033957 6 245 1.6 3.2 0.00 0.00 0.00 55 1016.0
20260507033455 6 245 1.6 1.6 0.00 0.00 0.00 55 1016.1
20260507032952 7 244 1.6 1.6 0.00 0.00 0.00 54 1016.1
20260507032449 7 244 1.6 1.6 0.00 0.00 0.00 52 1016.2
20260507031945 7 246 1.6 1.6 0.00 0.00 0.00 50 1016.0
20260507031441 7 246 0.0 1.6 0.00 0.00 0.00 50 1016.0
20260507030938 7 245 0.0 1.6 0.00 0.00 0.00 51 1015.9
20260507030435 7 245 0.0 1.6 0.00 0.00 0.00 51 1016.1
20260507025933 7 245 1.6 1.6 0.00 0.00 0.00 51 1016.0
20260507025430 7 244 0.0 1.6 0.00 0.00 0.00 51 1016.1
20260507024927 7 242 1.6 1.6 0.00 0.00 0.00 50 1016.1
20260507024424 8 240 1.6 3.2 0.00 0.00 0.00 49 1016.3
20260507023920 8 312 1.6 1.6 0.00 0.00 0.00 49 1016.0
20260507023417 9 312 0.0 0.0 0.00 0.00 0.00 51 1016.0
20260507022914 9 313 0.0 0.0 0.00 0.00 0.00 46 1016.0
20260507022411 9 313 0.0 0.0 0.00 0.00 0.00 43 1016.2
20260507021907 9 313 0.0 0.0 0.00 0.00 0.00 43 1015.8
20260507021408 9 313 0.0 0.0 0.00 0.00 0.00 43 1016.0
20260507020906 8 313 0.0 0.0 0.00 0.00 0.00 45 1015.9
20260507020402 8 313 0.0 0.0 0.00 0.00 0.00 43 1015.8
20260507015859 9 313 0.0 0.0 0.00 0.00 0.00 41 1015.8
20260507015357 9 313 0.0 0.0 0.00 0.00 0.00 42 1015.8
20260507014854 9 313 0.0 0.0 0.00 0.00 0.00 43 1015.7
20260507014350 9 313 0.0 0.0 0.00 0.00 0.00 45 1015.7
20260507013847 9 313 0.0 0.0 0.00 0.00 0.00 43 1015.8
20260507013344 10 313 0.0 0.0 0.00 0.00 0.00 42 1015.7
20260507012841 10 313 0.0 0.0 0.00 0.00 0.00 41 1015.9
20260507012337 10 313 0.0 3.2 0.00 0.00 0.00 40 1015.6
20260507011834 11 309 0.0 1.6 0.00 0.00 0.00 40 1015.6
20260507011331 11 310 0.0 0.0 0.00 0.00 0.00 40 1015.6
20260507010826 11 309 1.6 1.6 0.00 0.00 0.00 38 1015.6
20260507010322 12 313 0.0 1.6 0.00 0.00 0.00 38 1015.8
20260507005819 12 313 0.0 1.6 0.00 0.00 0.00 36 1015.8
20260507005315 12 329 1.6 3.2 0.00 0.00 0.00 37 1015.7
20260507004807 12 325 1.6 1.6 0.00 0.00 0.00 35 1015.6
20260507004304 12 320 0.0 1.6 0.00 0.00 0.00 35 1015.8
20260507003801 12 318 3.2 9.7 0.00 0.00 0.00 34 1015.8
20260507003255 12 324 3.2 9.7 0.00 0.00 0.00 34 1015.7
20260507002752 12 342 6.4 11.3 0.00 0.00 0.00 34 1015.7
20260507002248 13 354 11.3 14.5 0.00 0.00 0.00 34 1015.7
20260507001745 13 303 3.2 9.7 0.00 0.00 0.00 34 1015.9
20260507001243 13 300 3.2 12.9 0.00 0.00 0.00 32 1015.7
20260507000739 13 316 8.0 16.1 0.00 0.00 0.00 33 1015.9
20260507000235 13 313 6.4 16.1 0.00 0.00 0.00 34 1015.8
20260506235731 13 28 4.8 20.9 0.00 0.00 0.00 33 1015.9
20260506235227 13 341 11.3 11.3 0.00 0.00 0.00 32 1015.8
20260506234724 13 357 11.3 17.7 0.00 0.00 0.00 33 1015.9
20260506234221 13 344 3.2 9.7 0.00 0.00 0.00 33 1015.9
20260506233719 13 256 11.3 14.5 0.00 0.00 0.00 32 1015.9
20260506233215 13 335 11.3 24.1 0.00 0.00 0.00 33 1015.9
20260506232712 13 355 6.4 11.3 0.00 0.00 0.00 32 1016.1
20260506232206 13 295 9.7 20.9 0.00 0.00 0.00 32 1016.0
20260506231704 13 333 4.8 12.9 0.00 0.00 0.00 35 1016.0
20260506231203 13 320 6.4 9.7 0.00 0.00 0.00 32 1016.2
20260506230659 13 330 6.4 11.3 0.00 0.00 0.00 33 1016.1
20260506230156 13 314 9.7 24.1 0.00 0.00 0.00 32 1016.4
20260506225652 13 0 12.9 22.5 0.00 0.00 0.00 33 1016.3
20260506225149 13 299 11.3 16.1 0.00 0.00 0.00 32 1016.3
20260506224645 13 342 8.0 12.9 0.00 0.00 0.00 34 1016.2
20260506224142 13 339 8.0 16.1 0.00 0.00 0.00 32 1016.2
20260506223639 13 330 6.4 16.1 0.00 0.00 0.00 32 1016.4
20260506223135 13 355 16.1 22.5 0.00 0.00 0.00 33 1016.3
20260506222632 13 25 8.0 22.5 0.00 0.00 0.00 35 1016.1
20260506222128 13 343 6.4 16.1 0.00 0.00 0.00 35 1016.1
20260506221626 13 303 8.0 9.7 0.00 0.00 0.00 33 1016.2
20260506221123 13 342 12.9 17.7 0.00 0.00 0.00 33 1016.2
20260506220620 14 310 11.3 20.9 0.00 0.00 0.00 33 1016.4
20260506220115 13 286 8.0 11.3 0.00 0.00 0.00 36 1016.3
20260506215612 13 343 1.6 20.9 0.00 0.00 0.00 35 1016.5
20260506215108 13 17 14.5 22.5 0.00 0.00 0.00 33 1016.5
20260506214605 14 301 8.0 14.5 0.00 0.00 0.00 33 1016.6
20260506214102 14 326 4.8 27.4 0.00 0.00 0.00 32 1016.5
20260506213600 13 330 16.1 24.1 0.00 0.00 0.00 31 1016.4
20260506213057 13 224 4.8 12.9 0.00 0.00 0.00 35 1016.4
20260506212554 14 341 1.6 11.3 0.00 0.00 0.00 33 1016.5
20260506212048 13 18 9.7 20.9 0.00 0.00 0.00 34 1016.4
20260506211545 14 322 17.7 24.1 0.00 0.00 0.00 34 1016.7
20260506211042 13 328 4.8 16.1 0.00 0.00 0.00 36 1016.7
20260506210538 13 330 6.4 14.5 0.00 0.00 0.00 34 1016.7
20260506210035 13 250 12.9 17.7 0.00 0.00 0.00 33 1016.6
20260506205532 13 314 20.9 24.1 0.00 0.00 0.00 34 1016.6
20260506205027 13 319 1.6 11.3 0.00 0.00 0.00 35 1016.8
20260506204526 13 319 11.3 12.9 0.00 0.00 0.00 34 1016.8
20260506204022 13 283 3.2 17.7 0.00 0.00 0.00 37 1016.8
20260506203521 12 339 3.2 16.1 0.00 0.00 0.00 38 1016.8
20260506203017 12 249 4.8 9.7 0.00 0.00 0.00 36 1017.0
20260506202514 12 315 8.0 17.7 0.00 0.00 0.00 36 1017.2
20260506202010 12 7 11.3 17.7 0.00 0.00 0.00 37 1017.1
20260506201509 12 346 6.4 11.3 0.00 0.00 0.00 38 1017.2
20260506201004 12 346 11.3 20.9 0.00 0.00 0.00 37 1017.2
20260506200501 12 284 11.3 16.1 0.00 0.00 0.00 36 1017.1
20260506195957 11 316 11.3 17.7 0.00 0.00 0.00 37 1017.0
20260506195455 12 343 6.4 12.9 0.00 0.00 0.00 38 1017.3
20260506194950 14 321 8.0 11.3 0.00 0.00 0.00 34 1017.1
20260506194448 13 296 11.3 14.5 0.00 0.00 0.00 35 1017.0
20260506193944 12 298 3.2 12.9 0.00 0.00 0.00 36 1017.5
20260506193441 12 257 14.5 17.7 0.00 0.00 0.00 36 1017.3
20260506192933 12 297 4.8 20.9 0.00 0.00 0.00 36 1017.3
20260506192430 12 295 12.9 24.1 0.00 0.00 0.00 35 1017.6
20260506191926 11 350 3.2 9.7 0.00 0.00 0.00 39 1017.5
20260506191422 12 339 4.8 11.3 0.00 0.00 0.00 40 1017.5
20260506190914 12 267 4.8 22.5 0.00 0.00 0.00 39 1017.6
20260506190410 12 15 12.9 25.7 0.00 0.00 0.00 36 1017.5
20260506185907 11 10 12.9 16.1 0.00 0.00 0.00 38 1017.3
20260506185405 11 313 3.2 20.9 0.00 0.00 0.00 38 1017.5
20260506184902 12 299 16.1 22.5 0.00 0.00 0.00 38 1017.5
20260506184358 12 325 3.2 12.9 0.00 0.00 0.00 39 1017.6
20260506183855 12 330 4.8 14.5 0.00 0.00 0.00 41 1017.7
20260506183350 12 2 6.4 11.3 0.00 0.00 0.00 39 1017.6
20260506182848 11 323 9.7 14.5 0.00 0.00 0.00 40 1017.7
20260506182345 12 22 11.3 25.7 0.00 0.00 0.00 40 1017.6
20260506181843 11 296 8.0 11.3 0.00 0.00 0.00 39 1017.7
20260506181341 11 269 9.7 24.1 0.00 0.00 0.00 40 1017.7
20260506180837 11 316 16.1 22.5 0.00 0.00 0.00 39 1017.8
20260506180333 11 349 3.2 9.7 0.00 0.00 0.00 41 1017.9
20260506175824 11 306 11.3 20.9 0.00 0.00 0.00 39 1017.8
20260506175321 11 243 6.4 12.9 0.00 0.00 0.00 38 1017.9
20260506174818 11 310 9.7 16.1 0.00 0.00 0.00 41 1017.9
20260506174315 11 330 14.5 17.7 0.00 0.00 0.00 39 1018.0
20260506173813 11 333 12.9 16.1 0.00 0.00 0.00 41 1018.0
20260506173310 11 300 8.0 14.5 0.00 0.00 0.00 40 1018.1
20260506172807 11 292 3.2 9.7 0.00 0.00 0.00 40 1018.1
20260506172306 12 322 8.0 16.1 0.00 0.00 0.00 41 1018.0
20260506171801 10 18 4.8 14.5 0.00 0.00 0.00 40 1018.0
20260506171257 11 335 12.9 20.9 0.00 0.00 0.00 41 1018.2
20260506170755 10 324 11.3 16.1 0.00 0.00 0.00 41 1018.3
20260506170251 11 16 6.4 17.7 0.00 0.00 0.00 42 1018.1
20260506165750 11 277 11.3 14.5 0.00 0.00 0.00 39 1018.2
20260506165247 11 306 9.7 22.5 0.00 0.00 0.00 41 1018.2
20260506164744 11 299 3.2 27.4 0.00 0.00 0.00 41 1018.3
20260506164241 11 296 6.4 16.1 0.00 0.00 0.00 44 1018.1
20260506163738 11 310 14.5 22.5 0.00 0.00 0.00 41 1018.0
20260506163232 11 325 8.0 20.9 0.00 0.00 0.00 41 1018.2
20260506162728 10 32 8.0 20.9 0.00 0.00 0.00 42 1018.1
20260506162227 10 25 1.6 9.7 0.00 0.00 0.00 42 1018.2
20260506161724 11 350 11.3 17.7 0.00 0.00 0.00 42 1018.2
20260506161220 11 281 14.5 25.7 0.00 0.00 0.00 38 1018.1
20260506160718 10 23 6.4 12.9 0.00 0.00 0.00 43 1018.1
20260506160209 10 300 8.0 20.9 0.00 0.00 0.00 44 1018.1
20260506155707 10 290 8.0 11.3 0.00 0.00 0.00 45 1018.0
20260506155204 10 284 4.8 22.5 0.00 0.00 0.00 46 1018.2
20260506153306 10 312 3.2 9.7 0.00 0.00 0.00 48 1018.1
20260506152803 10 310 4.8 8.0 0.00 0.00 0.00 48 1018.0
20260506152300 10 318 6.4 12.9 0.00 0.00 0.00 49 1018.3
20260506151759 9 335 3.2 9.7 0.00 0.00 0.00 48 1018.2
20260506151255 8 347 4.8 12.9 0.00 0.00 0.00 49 1018.1
20260506150752 9 334 12.9 16.1 0.00 0.00 0.00 49 1018.2
20260506150249 9 359 8.0 12.9 0.00 0.00 0.00 51 1018.1
20260506145746 8 351 6.4 9.7 0.00 0.00 0.00 51 1018.1
20260506145242 8 301 4.8 8.0 0.00 0.00 0.00 54 1018.3
20260506144740 8 261 6.4 11.3 0.00 0.00 0.00 53 1018.0
20260506144237 8 316 3.2 4.8 0.00 0.00 0.00 55 1018.1
20260506143734 8 347 4.8 4.8 0.00 0.00 0.00 57 1018.1
20260506143231 7 334 0.0 3.2 0.00 0.00 0.00 57 1018.0
20260506142730 7 8 4.8 9.7 0.00 0.00 0.00 59 1018.1
20260506142227 8 325 3.2 11.3 0.00 0.00 0.00 58 1018.1
20260506141725 8 353 3.2 4.8 0.00 0.00 0.00 59 1017.9
20260506141224 7 338 6.4 9.7 0.00 0.00 0.00 57 1018.0
20260506140721 7 6 8.0 12.9 0.00 0.00 0.00 57 1017.8
20260506140217 7 349 4.8 8.0 0.00 0.00 0.00 58 1017.8
20260506135714 7 332 1.6 8.0 0.00 0.00 0.00 62 1017.8
20260506135211 7 347 3.2 4.8 0.00 0.00 0.00 61 1017.5
20260506134708 7 335 4.8 4.8 0.00 0.00 0.00 64 1017.6
20260506134203 6 327 3.2 3.2 0.00 0.00 0.00 65 1017.3
20260506133701 6 348 3.2 9.7 0.00 0.00 0.00 65 1017.3
20260506133157 6 313 3.2 8.0 0.00 0.00 0.00 64 1017.5
20260506132655 6 332 1.6 3.2 0.00 0.00 0.00 67 1017.2
20260506132151 6 316 3.2 3.2 0.00 0.00 0.00 68 1017.1
20260506131649 6 317 0.0 1.6 0.00 0.00 0.00 66 1017.2
20260506131145 6 346 4.8 4.8 0.00 0.00 0.00 68 1017.3
20260506130642 6 343 3.2 4.8 0.00 0.00 0.00 68 1017.1
20260506130140 5 331 0.0 1.6 0.00 0.00 0.00 70 1017.0
20260506125638 5 327 3.2 3.2 0.00 0.00 0.00 69 1017.1
20260506125135 5 317 4.8 4.8 0.00 0.00 0.00 68 1017.0
20260506124633 5 336 3.2 4.8 0.00 0.00 0.00 71 1017.0
20260506124131 5 304 1.6 3.2 0.00 0.00 0.00 71 1017.0
20260506123628 5 301 0.0 1.6 0.00 0.00 0.00 72 1016.9
20260506123127 5 300 1.6 3.2 0.00 0.00 0.00 73 1016.9
20260506122623 5 299 0.0 1.6 0.00 0.00 0.00 75 1016.8
20260506122121 4 300 0.0 0.0 0.00 0.00 0.00 76 1016.5
20260506121618 4 300 1.6 1.6 0.00 0.00 0.00 76 1016.4
20260506121114 3 300 0.0 1.6 0.00 0.00 0.00 77 1016.5
20260506120612 3 300 0.0 0.0 0.00 0.00 0.00 77 1016.5
20260506120109 3 300 0.0 1.6 0.00 0.00 0.00 76 1016.5
20260506115608 3 300 1.6 3.2 0.00 0.00 0.00 76 1016.4
20260506115106 3 300 1.6 1.6 0.00 0.00 0.00 76 1016.4
20260506114602 3 300 1.6 1.6 0.00 0.00 0.00 75 1016.5
20260506114101 3 303 1.6 1.6 0.00 0.00 0.00 76 1016.1
20260506113558 3 303 3.2 3.2 0.00 0.00 0.00 75 1016.2
20260506113055 3 302 1.6 4.8 0.00 0.00 0.00 76 1016.2
20260506112552 3 302 0.0 3.2 0.00 0.00 0.00 76 1016.0
20260506112049 3 299 1.6 1.6 0.00 0.00 0.00 77 1015.9
20260506111547 3 298 1.6 3.2 0.00 0.00 0.00 77 1015.9
20260506111044 3 297 0.0 1.6 0.00 0.00 0.00 75 1015.8
20260506110542 3 297 1.6 3.2 0.00 0.00 0.00 74 1015.8
20260506110039 3 297 1.6 1.6 0.00 0.00 0.00 75 1015.5
20260506105535 3 298 0.0 1.6 0.00 0.00 0.00 76 1015.8
20260506105032 3 297 1.6 1.6 0.00 0.00 0.00 75 1015.7
20260506104530 3 297 1.6 3.2 0.00 0.00 0.00 74 1015.5
20260506104028 3 299 1.6 3.2 0.00 0.00 0.00 74 1015.4
20260506103525 3 299 0.0 3.2 0.00 0.00 0.00 74 1015.4
20260506103021 3 299 0.0 1.6 0.00 0.00 0.00 74 1015.3
20260506102520 3 299 0.0 0.0 0.00 0.00 0.00 76 1015.4
20260506102017 3 299 0.0 1.6 0.00 0.00 0.00 77 1015.0
20260506101513 3 299 0.0 1.6 0.00 0.00 0.00 74 1015.1
20260506101011 3 296 0.0 1.6 0.00 0.00 0.00 74 1015.1
20260506100509 3 296 0.0 1.6 0.00 0.00 0.00 74 1015.2
20260506100007 3 296 0.0 1.6 0.00 0.00 0.00 74 1015.2
20260506095505 3 312 1.6 1.6 0.00 0.00 0.00 75 1015.0
20260506095001 3 312 0.0 1.6 0.00 0.00 0.00 75 1015.1
20260506094459 3 295 0.0 4.8 0.00 0.00 0.00 74 1015.2
20260506093956 3 298 1.6 3.2 0.00 0.00 0.00 74 1015.1
20260506093455 3 296 1.6 4.8 0.00 0.00 0.00 74 1015.1
20260506092952 3 298 4.8 4.8 0.00 0.00 0.00 74 1015.1